Regional Weather Roundup
Issued by NWS Sioux Falls, SD

Home | Current Version | Previous Version | Text Only | Print | Product List | Glossary Off
Versions: 1 2 3 4 5 6 7 8 9 10 11 12 13 14 15 16 17 18 19 20 21 22 23 24 25 26 27 28 29 30 31 32 33 34 35 36 37 38 39 40 41 42 43 44 45 46 47 48 49 50

000
ASUS43 KFSD 230502
RWRFSD

WEATHER ROUNDUP FOR SE SOUTH DAKOTA/SW MINNESOTA/NW IOWA
NATIONAL WEATHER SERVICE SIOUX FALLS SD
1200 AM CDT FRI JUN 23 2017

NOTE: "FAIR" INDICATES FEW OR NO CLOUDS BELOW 12,000 FEET WITH NO
SIGNIFICANT WEATHER AND OR OBSTRUCTIONS TO VISIBILITY.


SDZ038>040-050-052>070-230600-
SOUTHEAST SOUTH DAKOTA

CITY           SKY/WX    TMP DP  RH WIND       PRES   REMARKS
BROOKINGS      CLEAR     58  53  84 CALM      29.84F
CHAMBERLAIN    CLEAR     64  49  59 NW7       29.91R
HURON          CLEAR     60  53  77 W5        29.85S
MADISON        FAIR      59  50  72 W6        29.85F
MITCHELL       CLEAR     62  53  72 SW5       29.86S
SIOUX FALLS    CLEAR     58  51  78 CALM      29.84S
WINNER         FAIR      60  45  57 NW7       29.94R
YANKTON        CLEAR     60  53  77 NW7       29.86F
$$

MNZ071-072-080-081-089-090-097-098-230600-
SOUTHWEST MINNESOTA

CITY           SKY/WX    TMP DP  RH WIND       PRES   REMARKS
FAIRMONT       CLOUDY    61  57  87 NW7       29.80R
JACKSON        CLEAR     57  54  88 CALM      29.83S
LUVERNE        CLEAR     55  50  82 NW3       29.85R
MARSHALL       CLEAR     59  55  87 W7        29.81S
MONTEVIDEO     CLEAR     63  55  77 NW3       29.79S
PIPESTONE      CLEAR     61  48  63 W5        29.84S
REDWOOD FALLS  CLEAR     62  53  72 W5        29.78F
TRACY          CLEAR     62  53  72 W6        29.82S
WINDOM         CLEAR     59  54  82 W3        29.81F
WORTHINGTON    CLEAR     58  52  80 W6        29.83F
$$

IAZ001>003-012>014-020>022-031-032-NEZ013-014-SDZ071-230600-
NORTHWEST IOWA

CITY           SKY/WX    TMP DP  RH WIND       PRES   REMARKS
CHEROKEE       CLOUDY    65  57  75 N6        29.83R
DENISON        CLOUDY   N/A N/A N/A N12G17    29.81S
ESTHERVILLE    CLOUDY    58  57  97 NW6       29.81R
LE MARS        CLEAR     63  55  77 N5        29.85R
ORANGE CITY    CLEAR     63  54  72 N7        29.84S
SHELDON        CLEAR     59  54  82 N6        29.83R
SIOUX CITY       N/A    N/A N/A N/A MISG      29.84R
SPENCER        CLOUDY    59  55  87 NW6       29.82R
STORM LAKE     CLOUDY    64  57  77 N13       29.83R
$$

ABBREVIATIONS USED IN REMARKS
   TC - TEMPERATURE IN CELSIUS
  WCI - WIND CHILL INDEX
   HX - HEAT INDEX
  VSB - VISIBILITY





USA.gov is the U.S. government's official web portal to all federal, state and local government web resources and services.